User: anonymous   Login
Location: Unspecified
(0.0000°N, 0.0000°E)
Time: 21:52:25
(UTC+00:00)
Language:

STARLINK-11683 [DTC] - Orbit

View from above orbital plane
View from above orbital plane
View from above satellite
View from above satellite

Ground track
Ground track

The orbit is defined by the following mean orbital elements,

1 64239U          26144.89694994 +.00000000 +00000-0 +12594-2 0 00005
2 64239  42.9975 109.4483 0000817 166.9740 193.1149 15.70948350    00
Epoch (UTC): 24 May 2026 21:31:36
Eccentricity: 0.0000817
inclination: 42.9975°
perigee height: 356 km
apogee height: 357 km
right ascension of ascending node: 109.4483°
argument of perigee: 166.9740°
revolutions per day: 15.70948350
mean anomaly at epoch: 193.1149°

The dashed part of the orbit path shows where the satellite is in the earth's shadow,  

DLR